Regional Weather Roundup
Issued by NWS Kansas City/Pleasant Hill, MO

Home | Current Version | Previous Version | Graphics & Text | Print | Product List | Glossary Off
Versions: 1 2 3 4 5 6 7 8 9 10 11 12 13 14 15 16 17 18 19 20 21 22 23 24 25 26 27 28 29 30 31 32 33 34 35 36 37 38 39 40 41 42 43 44 45 46 47 48 49 50

000
ASUS43 KEAX 020610
RWREAX

WEATHER ROUNDUP FOR EASTERN KANSAS AND NORTHWEST MISSOURI
NATIONAL WEATHER SERVICE KANSAS CITY/PLEASANT HILL MO
100 AM CDT THU JUL 02 2015

KSZ040-057-103>105-MOZ028-029-037-043-020700-
...KANSAS CITY METROPOLITAN AREA...

CITY           SKY/WX    TMP DP  RH WIND       PRES   REMARKS
K.C. INTL      PTCLDY    74  70  87 E15       29.87R
6HR MIN TEMP:  74; 6HR MAX TEMP:  83;

K.C. DOWNTOWN  CLOUDY    77  72  84 E16       29.84R
6HR MIN TEMP:  77; 6HR MAX TEMP:  82; 6HR PCP:  0.03;

LEES SUMMIT    CLOUDY    74  71  91 E8        29.87R
6HR MIN TEMP:  71; 6HR MAX TEMP:  76;

OLATHE - IXD   MOCLDY    73  66  78 NE9       29.86R
6HR MIN TEMP:  73; 6HR MAX TEMP:  87;

OLATHE - OJC   MOCLDY    72  66  81 E8        29.86R
6HR MIN TEMP:  72; 6HR MAX TEMP:  85;

LAWRENCE       CLOUDY    77  72  84 E10G18    29.85R

$$

MOZ001>008-011>017-020>025-030>033-038>040-044>046-053-054-020700-
...NORTHERN AND CENTRAL MISSOURI...

CITY           SKY/WX    TMP DP  RH WIND       PRES   REMARKS
ST. JOSEPH     CLOUDY    74  69  85 E8        29.88R
6HR MIN TEMP:  74; 6HR MAX TEMP:  84;

MOSBY          CLOUDY    73  70  88 E6        29.87R
HARRISONVILLE  CLOUDY    72  68  88 SE5       29.88S
WARRENSBURG    CLOUDY    72  68  88 CALM      29.85F FOG
WHITEMAN AFB   PTCLDY    71  69  92 CALM      29.84S
6HR MIN TEMP:  71; 6HR MAX TEMP:  80; 6HR PCP:  1.00;

CLINTON        CLOUDY    73  73 100 W6        29.84F
SEDALIA        CLOUDY    72  69  90 CALM      29.86F
6HR MIN TEMP:  70; 6HR MAX TEMP:  81; 6HR PCP:  2.11;

WARSAW         FAIR      68  68 100 CALM      29.83
CHILLICOTHE      N/A     73  68  84 VRB5      29.90R
6HR MIN TEMP:  73; 6HR MAX TEMP:  83;

KIRKSVILLE     CLOUDY    68  66  93 NE7       29.93R FOG
6HR MIN TEMP:  68; 6HR MAX TEMP:  77; 6HR PCP:  0.10;


$$

MOZ041-047>049-056>058-063>065-088>090-097-020700-
...EASTERN AND SOUTHERN MISSOURI...

CITY           SKY/WX    TMP DP  RH WIND       PRES   REMARKS
ST. LOUIS INTL LGT RAIN  74  70  87 E5        29.87F
6HR MIN TEMP:  72; 6HR MAX TEMP:  82; 6HR PCP:  0.79;

SPIRIT OF STL  CLOUDY    71  70  96 CALM      29.86R
COLUMBIA       CLOUDY    71  69  93 CALM      29.87R
JEFFERSON CITY CLOUDY    72  70  93 CALM      29.85R
MEXICO         CLOUDY   N/A N/A N/A NE8       29.88
ROLLA          CLOUDY    69  68  96 SW7       29.89R
LEBANON        RAIN      70  66  88 S9        29.90R
OSAGE BEACH    CLOUDY    70  66  88 S7        29.86F
SPRINGFIELD    TSTM      78  71  79 SW25G35   29.79F
BRANSON        CLOUDY    79  68  69 SW9       29.87S
NEVADA         HVY RAIN  66  63  88 N30G40    29.88R VSB 1
JOPLIN         CLOUDY    81  71  71 SW15      29.82S
WEST PLAINS    LGT RAIN  76  72  87 CALM      29.90R
MALDEN         LGT RAIN  81  73  78 SW10      29.89R

$$

IAZ060-094-KSZ022-034>040-054-083-096-NEZ052-066-093-020700-
...KANSAS...SOUTHEAST NEBRASKA AND IOWA...

CITY           SKY/WX    TMP DP  RH WIND       PRES   REMARKS
TOPEKA         CLOUDY    78  74  87 NE9       29.85R
6HR MIN TEMP:  77; 6HR MAX TEMP:  91;

MANHATTAN      MOCLDY    77  73  87 NE8       29.84R
EMPORIA        MOCLDY    77  74  90 NE14      29.83R
CHANUTE        PTCLDY    81  71  71 W8        29.81R
WICHITA        MOCLDY    79  66  64 NW8       29.81F
OMAHA          CLOUDY    70  62  76 VRB7      29.93R
LINCOLN        PTCLDY    71  66  84 E10       29.92R
FALLS CITY     CLOUDY    72  68  87 E9        29.88R
LAMONI         CLOUDY    67  61  81 NE6       29.93R
DES MOINES     CLEAR     63  56  78 E10       29.95S

$$




USA.gov is the U.S. government's official web portal to all federal, state and local government web resources and services.